Voltar ao catálogo

TIANQI 22

AtivoComunicaçõesLEO
NORAD 57793·PAYLOAD·🇨🇳 China

Lançado Sep 5, 2023 de Yellow Sea Launch Area

Loading…

Próximas Passagens (próximas 24 horas)

TLE

AtualizadoSource: Space-Track

Época: Sep 14, 2026, 15:15 UTC

1 57793U 23135B   26257.63600146  .00000291  00000-0  19784-3 0  9997
2 57793  49.9676 136.0519 0011763 214.2892 145.7262 14.23160119157362

Acompanhe TIANQI 22 em tempo real com AllMySat

Download on the App Store